Time,TemperatureF,DewpointF,PressureIn,WindDirection,WindDirectionDegrees,WindSpeedMPH,WindSpeedGustMPH,Humidity,HourlyPrecipIn,Conditions,Clouds,dailyrainin,SoftwareType,DateUTC
2013-03-10 00:00:00,39.5,24.2,30.19,ENE,75,0.0,0.0,54,0.00,,,0.00,WeatherCatV1.12B45,2013-03-10 05:00:00,
2013-03-10 00:05:00,39.1,25.2,30.18,ENE,75,0.0,0.0,57,0.00,,,0.00,WeatherCatV1.12B45,2013-03-10 05:05:00,
2013-03-10 00:10:00,39.1,23.4,30.18,ENE,75,0.0,0.0,53,0.00,,,0.00,WeatherCatV1.12B45,2013-03-10 05:10:00,
2013-03-10 00:15:00,39.5,23.8,30.18,ENE,75,0.0,1.0,53,0.00,,,0.00,WeatherCatV1.12B45,2013-03-10 05:15:00,
2013-03-10 00:20:00,40.4,22.8,30.18,ENE,75,0.0,1.0,49,0.00,,,0.00,WeatherCatV1.12B45,2013-03-10 05:20:00,
2013-03-10 00:25:00,40.9,24.2,30.18,ENE,75,0.0,0.0,51,0.00,,,0.00,WeatherCatV1.12B45,2013-03-10 05:25:00,
2013-03-10 00:30:00,41.0,25.6,30.17,ENE,75,0.0,1.0,54,0.00,,,0.00,WeatherCatV1.12B45,2013-03-10 05:30:00,
2013-03-10 00:35:00,41.0,23.3,30.17,ENE,75,0.0,1.0,49,0.00,,,0.00,WeatherCatV1.12B45,2013-03-10 05:35:00,
2013-03-10 00:40:00,41.2,23.5,30.17,ENE,75,0.0,0.0,49,0.00,,,0.00,WeatherCatV1.12B45,2013-03-10 05:40:00,
2013-03-10 00:45:00,41.3,22.6,30.18,ENE,75,0.0,0.0,47,0.00,,,0.00,WeatherCatV1.12B45,2013-03-10 05:45:00,
2013-03-10 00:50:00,41.7,23.0,30.18,ENE,74,0.0,1.0,47,0.00,,,0.00,WeatherCatV1.12B45,2013-03-10 05:50:00,
2013-03-10 00:55:00,41.9,24.1,30.18,ENE,75,0.0,0.0,49,0.00,,,0.00,WeatherCatV1.12B45,2013-03-10 05:55:00,
2013-03-10 01:00:00,41.9,25.6,30.18,ENE,75,0.0,1.0,52,0.00,,,0.00,WeatherCatV1.12B45,2013-03-10 06:00:00,
2013-03-10 01:05:00,41.8,23.1,30.18,ENE,75,0.0,0.0,47,0.00,,,0.00,WeatherCatV1.12B45,2013-03-10 06:05:00,
2013-03-10 01:10:00,41.9,23.7,30.18,ENE,75,0.0,0.0,48,0.00,,,0.00,WeatherCatV1.12B45,2013-03-10 06:10:00,
2013-03-10 01:15:00,41.9,22.6,30.18,ENE,75,0.0,1.0,46,0.00,,,0.00,WeatherCatV1.12B45,2013-03-10 06:15:00,
2013-03-10 01:20:00,42.3,22.0,30.18,ENE,75,0.0,1.0,44,0.00,,,0.00,WeatherCatV1.12B45,2013-03-10 06:20:00,
2013-03-10 01:25:00,42.2,24.4,30.18,ENE,75,0.0,0.0,49,0.00,,,0.00,WeatherCatV1.12B45,2013-03-10 06:25:00,
2013-03-10 01:30:00,41.5,23.8,30.18,ENE,75,0.0,1.0,49,0.00,,,0.00,WeatherCatV1.12B45,2013-03-10 06:30:00,
2013-03-10 01:35:00,41.3,23.6,30.18,ENE,75,0.0,0.0,49,0.00,,,0.00,WeatherCatV1.12B45,2013-03-10 06:35:00,
2013-03-10 01:40:00,41.4,22.7,30.17,ENE,75,0.0,0.0,47,0.00,,,0.00,WeatherCatV1.12B45,2013-03-10 06:40:00,
2013-03-10 01:45:00,41.6,24.4,30.17,ENE,75,0.0,1.0,50,0.00,,,0.00,WeatherCatV1.12B45,2013-03-10 06:45:00,
2013-03-10 01:50:00,41.7,23.5,30.16,ENE,75,0.0,0.0,48,0.00,,,0.00,WeatherCatV1.12B45,2013-03-10 06:50:00,
2013-03-10 01:55:00,41.4,24.2,30.16,ENE,75,0.0,1.0,50,0.00,,,0.00,WeatherCatV1.12B45,2013-03-10 06:55:00,
2013-03-10 03:00:00,41.3,24.6,30.16,ENE,75,0.0,1.0,51,0.00,,,0.00,WeatherCatV1.12B45,2013-03-10 07:00:00,
2013-03-10 03:05:00,41.3,24.1,30.16,East,82,0.0,1.0,50,0.00,,,0.00,WeatherCatV1.12B45,2013-03-10 07:05:00,
2013-03-10 03:10:00,41.3,24.1,30.15,East,82,0.0,1.0,50,0.00,,,0.00,WeatherCatV1.12B45,2013-03-10 07:10:00,
2013-03-10 03:15:00,41.5,25.7,30.15,East,82,0.0,0.0,53,0.00,,,0.00,WeatherCatV1.12B45,2013-03-10 07:15:00,
2013-03-10 03:20:00,41.3,24.1,30.15,East,82,0.0,1.0,50,0.00,,,0.00,WeatherCatV1.12B45,2013-03-10 07:20:00,
2013-03-10 03:25:00,41.5,23.8,30.15,East,82,0.0,0.0,49,0.00,,,0.00,WeatherCatV1.12B45,2013-03-10 07:25:00,
2013-03-10 03:30:00,41.5,25.2,30.15,East,82,0.0,1.0,52,0.00,,,0.00,WeatherCatV1.12B45,2013-03-10 07:30:00,
2013-03-10 03:35:00,41.2,23.5,30.14,East,80,1.0,1.0,49,0.00,,,0.00,WeatherCatV1.12B45,2013-03-10 07:35:00,
2013-03-10 03:40:00,41.3,24.6,30.14,East,80,0.0,1.0,51,0.00,,,0.00,WeatherCatV1.12B45,2013-03-10 07:40:00,
2013-03-10 03:45:00,41.7,23.0,30.14,East,84,0.0,1.0,47,0.00,,,0.00,WeatherCatV1.12B45,2013-03-10 07:45:00,
2013-03-10 03:50:00,42.2,23.4,30.14,East,84,0.0,0.0,47,0.00,,,0.00,WeatherCatV1.12B45,2013-03-10 07:50:00,
2013-03-10 03:55:00,42.2,26.3,30.14,East,84,0.0,1.0,53,0.00,,,0.00,WeatherCatV1.12B45,2013-03-10 07:55:00,
2013-03-10 04:00:00,42.2,23.4,30.13,East,84,0.0,0.0,47,0.00,,,0.00,WeatherCatV1.12B45,2013-03-10 08:00:00,
2013-03-10 04:05:00,42.4,26.0,30.13,East,84,1.0,1.0,52,0.00,,,0.00,WeatherCatV1.12B45,2013-03-10 08:05:00,
2013-03-10 04:10:00,42.2,27.2,30.13,NNW,348,0.0,0.0,55,0.00,,,0.00,WeatherCatV1.12B45,2013-03-10 08:10:00,
2013-03-10 04:15:00,42.3,25.5,30.13,NNE,30,0.0,0.0,51,0.00,,,0.00,WeatherCatV1.12B45,2013-03-10 08:15:00,
2013-03-10 04:20:00,42.3,25.9,30.13,NNE,30,0.0,0.0,52,0.00,,,0.00,WeatherCatV1.12B45,2013-03-10 08:20:00,
2013-03-10 04:25:00,42.3,23.5,30.13,NNE,29,0.0,1.0,47,0.00,,,0.00,WeatherCatV1.12B45,2013-03-10 08:25:00,
2013-03-10 04:30:00,42.6,23.3,30.14,NNE,29,0.0,1.0,46,0.00,,,0.00,WeatherCatV1.12B45,2013-03-10 08:30:00,
2013-03-10 04:35:00,42.9,24.1,30.13,NNE,29,0.0,0.0,47,0.00,,,0.00,WeatherCatV1.12B45,2013-03-10 08:35:00,
2013-03-10 04:40:00,42.8,24.5,30.14,NNE,29,0.0,1.0,48,0.00,,,0.00,WeatherCatV1.12B45,2013-03-10 08:40:00,
2013-03-10 04:45:00,42.5,26.1,30.14,NNE,30,0.0,0.0,52,0.00,,,0.00,WeatherCatV1.12B45,2013-03-10 08:45:00,
2013-03-10 04:50:00,42.3,24.0,30.14,NNE,30,0.0,1.0,48,0.00,,,0.00,WeatherCatV1.12B45,2013-03-10 08:50:00,
2013-03-10 04:55:00,42.7,23.4,30.14,NNE,30,0.0,0.0,46,0.00,,,0.00,WeatherCatV1.12B45,2013-03-10 08:55:00,
2013-03-10 05:00:00,43.0,26.6,30.14,NNE,30,0.0,0.0,52,0.00,,,0.00,WeatherCatV1.12B45,2013-03-10 09:00:00,
2013-03-10 05:05:00,42.5,26.1,30.13,NNE,30,0.0,0.0,52,0.00,,,0.00,WeatherCatV1.12B45,2013-03-10 09:05:00,
2013-03-10 05:10:00,42.2,25.4,30.13,NE,34,0.0,1.0,51,0.00,,,0.00,WeatherCatV1.12B45,2013-03-10 09:10:00,
2013-03-10 05:15:00,42.5,25.2,30.14,NE,34,0.0,0.0,50,0.00,,,0.00,WeatherCatV1.12B45,2013-03-10 09:15:00,
2013-03-10 05:20:00,42.5,26.1,30.13,NE,34,0.0,0.0,52,0.00,,,0.00,WeatherCatV1.12B45,2013-03-10 09:20:00,
2013-03-10 05:25:00,42.2,26.3,30.13,NE,34,0.0,0.0,53,0.00,,,0.00,WeatherCatV1.12B45,2013-03-10 09:25:00,
2013-03-10 05:30:00,42.1,25.3,30.14,NE,34,0.0,0.0,51,0.00,,,0.00,WeatherCatV1.12B45,2013-03-10 09:30:00,
2013-03-10 05:35:00,41.9,24.6,30.13,NE,34,0.0,0.0,50,0.00,,,0.00,WeatherCatV1.12B45,2013-03-10 09:35:00,
2013-03-10 05:40:00,42.2,25.9,30.13,NE,34,0.0,0.0,52,0.00,,,0.00,WeatherCatV1.12B45,2013-03-10 09:40:00,
2013-03-10 05:45:00,42.2,23.9,30.13,NNE,33,0.0,0.0,48,0.00,,,0.00,WeatherCatV1.12B45,2013-03-10 09:45:00,
2013-03-10 05:50:00,42.3,24.5,30.14,NE,34,0.0,0.0,49,0.00,,,0.00,WeatherCatV1.12B45,2013-03-10 09:50:00,
2013-03-10 05:55:00,42.5,23.2,30.13,NE,34,0.0,0.0,46,0.00,,,0.00,WeatherCatV1.12B45,2013-03-10 09:55:00,
2013-03-10 06:00:00,42.8,22.9,30.14,NE,34,0.0,0.0,45,0.00,,,0.00,WeatherCatV1.12B45,2013-03-10 10:00:00,
2013-03-10 06:05:00,43.0,23.7,30.13,NE,34,0.0,0.0,46,0.00,,,0.00,WeatherCatV1.12B45,2013-03-10 10:05:00,
2013-03-10 06:10:00,43.0,25.6,30.13,East,98,0.0,1.0,50,0.00,,,0.00,WeatherCatV1.12B45,2013-03-10 10:10:00,
2013-03-10 06:15:00,42.0,26.6,30.12,East,98,0.0,1.0,54,0.00,,,0.00,WeatherCatV1.12B45,2013-03-10 10:15:00,
2013-03-10 06:20:00,42.1,24.8,30.13,East,98,0.0,0.0,50,0.00,,,0.00,WeatherCatV1.12B45,2013-03-10 10:20:00,
2013-03-10 06:25:00,42.3,25.5,30.13,East,98,0.0,0.0,51,0.00,,,0.00,WeatherCatV1.12B45,2013-03-10 10:25:00,
2013-03-10 06:30:00,42.5,24.2,30.13,East,98,0.0,0.0,48,0.00,,,0.00,WeatherCatV1.12B45,2013-03-10 10:30:00,
2013-03-10 06:35:00,42.8,26.9,30.13,East,98,0.0,0.0,53,0.00,,,0.00,WeatherCatV1.12B45,2013-03-10 10:35:00,
2013-03-10 06:40:00,42.7,24.4,30.13,East,98,0.0,0.0,48,0.00,,,0.00,WeatherCatV1.12B45,2013-03-10 10:40:00,
2013-03-10 06:45:00,42.8,25.0,30.14,East,98,0.0,0.0,49,0.00,,,0.00,WeatherCatV1.12B45,2013-03-10 10:45:00,
2013-03-10 06:50:00,42.8,24.0,30.14,East,98,0.0,0.0,47,0.00,,,0.00,WeatherCatV1.12B45,2013-03-10 10:50:00,
2013-03-10 06:55:00,42.4,25.6,30.13,East,98,0.0,0.0,51,0.00,,,0.00,WeatherCatV1.12B45,2013-03-10 10:55:00,
2013-03-10 07:00:00,42.2,26.3,30.14,East,98,0.0,0.0,53,0.00,,,0.00,WeatherCatV1.12B45,2013-03-10 11:00:00,
2013-03-10 07:05:00,42.0,24.7,30.13,East,98,0.0,0.0,50,0.00,,,0.00,WeatherCatV1.12B45,2013-03-10 11:05:00,
2013-03-10 07:10:00,42.0,23.8,30.13,East,98,0.0,0.0,48,0.00,,,0.00,WeatherCatV1.12B45,2013-03-10 11:10:00,
2013-03-10 07:15:00,41.9,24.6,30.14,East,98,0.0,1.0,50,0.00,,,0.00,WeatherCatV1.12B45,2013-03-10 11:15:00,
2013-03-10 07:20:00,42.0,23.2,30.14,East,98,0.0,0.0,47,0.00,,,0.00,WeatherCatV1.12B45,2013-03-10 11:20:00,
2013-03-10 07:25:00,42.1,25.3,30.13,East,98,0.0,1.0,51,0.00,,,0.00,WeatherCatV1.12B45,2013-03-10 11:25:00,
2013-03-10 07:30:00,42.1,23.3,30.13,East,98,0.0,1.0,47,0.00,,,0.00,WeatherCatV1.12B45,2013-03-10 11:30:00,
2013-03-10 07:35:00,42.2,23.9,30.13,East,98,0.0,0.0,48,0.00,,,0.00,WeatherCatV1.12B45,2013-03-10 11:35:00,
2013-03-10 07:40:00,42.6,25.8,30.14,East,98,0.0,0.0,51,0.00,,,0.00,WeatherCatV1.12B45,2013-03-10 11:40:00,
2013-03-10 07:45:00,42.5,24.2,30.14,East,98,0.0,0.0,48,0.00,,,0.00,WeatherCatV1.12B45,2013-03-10 11:45:00,
2013-03-10 07:50:00,42.5,22.7,30.14,East,98,0.0,0.0,45,0.00,,,0.00,WeatherCatV1.12B45,2013-03-10 11:50:00,
2013-03-10 07:55:00,42.8,22.4,30.14,East,98,0.0,0.0,44,0.00,,,0.00,WeatherCatV1.12B45,2013-03-10 11:55:00,
2013-03-10 08:00:00,43.6,22.0,30.14,East,98,0.0,0.0,42,0.00,,,0.00,WeatherCatV1.12B45,2013-03-10 12:00:00,
2013-03-10 08:05:00,43.9,22.3,30.14,East,98,0.0,0.0,42,0.00,,,0.00,WeatherCatV1.12B45,2013-03-10 12:05:00,
2013-03-10 08:10:00,43.7,24.3,30.14,East,98,0.0,0.0,46,0.00,,,0.00,WeatherCatV1.12B45,2013-03-10 12:10:00,
2013-03-10 08:15:00,43.6,23.1,30.14,East,98,0.0,1.0,44,0.00,,,0.00,WeatherCatV1.12B45,2013-03-10 12:15:00,
2013-03-10 08:20:00,43.7,23.2,30.14,East,98,0.0,0.0,44,0.00,,,0.00,WeatherCatV1.12B45,2013-03-10 12:20:00,
2013-03-10 08:25:00,43.8,22.8,30.14,East,98,0.0,0.0,43,0.00,,,0.00,WeatherCatV1.12B45,2013-03-10 12:25:00,
2013-03-10 08:30:00,43.9,23.9,30.14,East,98,0.0,0.0,45,0.00,,,0.00,WeatherCatV1.12B45,2013-03-10 12:30:00,
2013-03-10 08:35:00,43.9,23.4,30.14,East,98,0.0,0.0,44,0.00,,,0.00,WeatherCatV1.12B45,2013-03-10 12:35:00,
2013-03-10 08:40:00,44.0,22.4,30.14,East,98,0.0,0.0,42,0.00,,,0.00,WeatherCatV1.12B45,2013-03-10 12:40:00,
2013-03-10 08:45:00,44.4,22.2,30.14,East,98,0.0,0.0,41,0.00,,,0.00,WeatherCatV1.12B45,2013-03-10 12:45:00,
2013-03-10 08:50:00,45.0,22.1,30.14,East,98,1.0,1.0,40,0.00,,,0.00,WeatherCatV1.12B45,2013-03-10 12:50:00,
2013-03-10 08:55:00,45.1,22.8,30.14,East,98,0.0,1.0,41,0.00,,,0.00,WeatherCatV1.12B45,2013-03-10 12:55:00,
2013-03-10 09:00:00,45.1,28.1,30.14,East,98,0.0,0.0,51,0.00,,,0.00,WeatherCatV1.12B45,2013-03-10 13:00:00,
2013-03-10 09:05:00,44.8,26.3,30.14,East,98,0.0,0.0,48,0.00,,,0.00,WeatherCatV1.12B45,2013-03-10 13:05:00,
2013-03-10 09:10:00,44.5,28.0,30.14,East,98,0.0,1.0,52,0.00,,,0.00,WeatherCatV1.12B45,2013-03-10 13:10:00,
2013-03-10 09:15:00,44.4,29.3,30.14,East,98,0.0,0.0,55,0.00,,,0.00,WeatherCatV1.12B45,2013-03-10 13:15:00,
2013-03-10 09:20:00,44.9,25.9,30.14,East,99,0.0,0.0,47,0.00,,,0.00,WeatherCatV1.12B45,2013-03-10 13:20:00,
2013-03-10 09:25:00,45.6,26.0,30.14,East,99,0.0,0.0,46,0.00,,,0.00,WeatherCatV1.12B45,2013-03-10 13:25:00,
2013-03-10 09:30:00,45.8,28.7,30.14,East,99,0.0,0.0,51,0.00,,,0.00,WeatherCatV1.12B45,2013-03-10 13:30:00,
2013-03-10 09:35:00,45.9,26.3,30.14,East,99,0.0,0.0,46,0.00,,,0.00,WeatherCatV1.12B45,2013-03-10 13:35:00,
2013-03-10 09:40:00,46.4,29.7,30.15,East,99,0.0,0.0,52,0.00,,,0.00,WeatherCatV1.12B45,2013-03-10 13:40:00,
2013-03-10 09:45:00,46.9,32.5,30.15,East,99,0.0,0.0,57,0.00,,,0.00,WeatherCatV1.12B45,2013-03-10 13:45:00,
2013-03-10 09:50:00,47.3,30.6,30.15,East,99,0.0,0.0,52,0.00,,,0.00,WeatherCatV1.12B45,2013-03-10 13:50:00,
2013-03-10 09:55:00,47.4,31.1,30.14,East,99,0.0,0.0,53,0.00,,,0.00,WeatherCatV1.12B45,2013-03-10 13:55:00,
2013-03-10 10:00:00,47.6,27.3,30.14,East,99,0.0,1.0,45,0.00,,,0.00,WeatherCatV1.12B45,2013-03-10 14:00:00,
2013-03-10 10:05:00,47.9,29.7,30.14,East,99,0.0,1.0,49,0.00,,,0.00,WeatherCatV1.12B45,2013-03-10 14:05:00,
2013-03-10 10:10:00,47.9,29.7,30.15,East,98,0.0,0.0,49,0.00,,,0.00,WeatherCatV1.12B45,2013-03-10 14:10:00,
2013-03-10 10:15:00,47.8,29.6,30.14,East,99,0.0,1.0,49,0.00,,,0.00,WeatherCatV1.12B45,2013-03-10 14:15:00,
2013-03-10 10:20:00,47.6,29.9,30.14,East,99,0.0,0.0,50,0.00,,,0.00,WeatherCatV1.12B45,2013-03-10 14:20:00,
2013-03-10 10:25:00,47.5,27.8,30.14,East,99,0.0,0.0,46,0.00,,,0.00,WeatherCatV1.12B45,2013-03-10 14:25:00,
2013-03-10 10:30:00,47.9,28.7,30.14,East,98,0.0,1.0,47,0.00,,,0.00,WeatherCatV1.12B45,2013-03-10 14:30:00,
2013-03-10 10:35:00,48.4,30.6,30.14,East,98,0.0,0.0,50,0.00,,,0.00,WeatherCatV1.12B45,2013-03-10 14:35:00,
2013-03-10 10:40:00,48.6,28.2,30.14,East,98,0.0,0.0,45,0.00,,,0.00,WeatherCatV1.12B45,2013-03-10 14:40:00,
2013-03-10 10:45:00,48.7,27.2,30.14,East,98,0.0,0.0,43,0.00,,,0.00,WeatherCatV1.12B45,2013-03-10 14:45:00,
2013-03-10 10:50:00,49.0,28.0,30.14,East,98,0.0,1.0,44,0.00,,,0.00,WeatherCatV1.12B45,2013-03-10 14:50:00,
2013-03-10 10:55:00,49.3,28.9,30.14,East,98,0.0,0.0,45,0.00,,,0.00,WeatherCatV1.12B45,2013-03-10 14:55:00,
2013-03-10 11:00:00,49.6,29.7,30.14,East,98,0.0,0.0,46,0.00,,,0.00,WeatherCatV1.12B45,2013-03-10 15:00:00,
2013-03-10 11:05:00,49.8,28.2,30.14,East,98,1.0,1.0,43,0.00,,,0.00,WeatherCatV1.12B45,2013-03-10 15:05:00,
2013-03-10 11:10:00,50.1,27.3,30.14,East,98,0.0,0.0,41,0.00,,,0.00,WeatherCatV1.12B45,2013-03-10 15:10:00,
2013-03-10 11:15:00,50.5,28.8,30.14,East,98,0.0,1.0,43,0.00,,,0.00,WeatherCatV1.12B45,2013-03-10 15:15:00,
2013-03-10 11:20:00,51.0,29.3,30.14,East,99,0.0,1.0,43,0.00,,,0.00,WeatherCatV1.12B45,2013-03-10 15:20:00,
2013-03-10 11:25:00,51.7,28.8,30.14,West,276,1.0,1.0,41,0.00,,,0.00,WeatherCatV1.12B45,2013-03-10 15:25:00,
2013-03-10 11:30:00,52.4,28.2,30.14,WSW,250,1.0,2.0,39,0.00,,,0.00,WeatherCatV1.12B45,2013-03-10 15:30:00,
2013-03-10 11:35:00,52.8,29.8,30.14,WNW,283,1.0,2.0,41,0.00,,,0.00,WeatherCatV1.12B45,2013-03-10 15:35:00,
2013-03-10 11:40:00,53.5,29.2,30.14,West,281,0.0,2.0,39,0.00,,,0.00,WeatherCatV1.12B45,2013-03-10 15:40:00,
2013-03-10 11:45:00,54.4,31.8,30.14,West,271,1.0,1.0,42,0.00,,,0.00,WeatherCatV1.12B45,2013-03-10 15:45:00,
2013-03-10 11:50:00,55.3,30.1,30.13,SSE,165,3.0,4.0,38,0.00,,,0.00,WeatherCatV1.12B45,2013-03-10 15:50:00,
2013-03-10 11:55:00,56.3,29.7,30.13,SW,214,1.0,1.0,36,0.00,,,0.00,WeatherCatV1.12B45,2013-03-10 15:55:00,
2013-03-10 12:00:00,57.4,30.7,30.13,SE,126,2.0,4.0,36,0.00,,,0.00,WeatherCatV1.12B45,2013-03-10 16:00:00,
2013-03-10 12:05:00,57.8,28.9,30.13,SSE,166,1.0,1.0,33,0.00,,,0.00,WeatherCatV1.12B45,2013-03-10 16:05:00,
2013-03-10 12:10:00,58.5,31.6,30.13,WNW,285,2.0,2.0,36,0.00,,,0.00,WeatherCatV1.12B45,2013-03-10 16:10:00,
2013-03-10 12:15:00,58.3,31.5,30.13,SSW,206,0.0,3.0,36,0.00,,,0.00,WeatherCatV1.12B45,2013-03-10 16:15:00,
2013-03-10 12:20:00,58.7,30.4,30.13,SSE,157,4.0,4.0,34,0.00,,,0.00,WeatherCatV1.12B45,2013-03-10 16:20:00,
2013-03-10 12:25:00,59.7,30.6,30.13,SSW,205,2.0,3.0,33,0.00,,,0.00,WeatherCatV1.12B45,2013-03-10 16:25:00,
2013-03-10 12:30:00,60.4,29.6,30.12,West,276,0.0,1.0,31,0.00,,,0.00,WeatherCatV1.12B45,2013-03-10 16:30:00,
2013-03-10 12:35:00,60.7,32.2,30.12,WSW,251,0.0,4.0,34,0.00,,,0.00,WeatherCatV1.12B45,2013-03-10 16:35:00,
2013-03-10 12:40:00,61.4,29.7,30.11,SE,146,4.0,5.0,30,0.00,,,0.00,WeatherCatV1.12B45,2013-03-10 16:40:00,
2013-03-10 12:45:00,61.8,30.0,30.11,SE,125,4.0,5.0,30,0.00,,,0.00,WeatherCatV1.12B45,2013-03-10 16:45:00,
2013-03-10 12:50:00,61.7,30.0,30.11,SSE,156,3.0,3.0,30,0.00,,,0.00,WeatherCatV1.12B45,2013-03-10 16:50:00,
2013-03-10 12:55:00,62.1,31.9,30.11,SW,222,2.0,2.0,32,0.00,,,0.00,WeatherCatV1.12B45,2013-03-10 16:55:00,
2013-03-10 13:00:00,62.5,31.5,30.11,West,262,1.0,4.0,31,0.00,,,0.00,WeatherCatV1.12B45,2013-03-10 17:00:00,
2013-03-10 13:05:00,62.4,31.4,30.11,West,276,0.0,4.0,31,0.00,,,0.00,WeatherCatV1.12B45,2013-03-10 17:05:00,
2013-03-10 13:10:00,62.8,30.9,30.10,ESE,106,2.0,2.0,30,0.00,,,0.00,WeatherCatV1.12B45,2013-03-10 17:10:00,
2013-03-10 13:15:00,62.3,31.3,30.10,ESE,108,1.0,2.0,31,0.00,,,0.00,WeatherCatV1.12B45,2013-03-10 17:15:00,
2013-03-10 13:20:00,62.1,31.1,30.10,ESE,115,2.0,2.0,31,0.00,,,0.00,WeatherCatV1.12B45,2013-03-10 17:20:00,
2013-03-10 13:25:00,62.9,31.0,30.09,SE,134,0.0,1.0,30,0.00,,,0.00,WeatherCatV1.12B45,2013-03-10 17:25:00,
2013-03-10 13:30:00,63.7,30.8,30.09,East,97,0.0,3.0,29,0.00,,,0.00,WeatherCatV1.12B45,2013-03-10 17:30:00,
2013-03-10 13:35:00,63.6,31.6,30.09,SSW,202,3.0,4.0,30,0.00,,,0.00,WeatherCatV1.12B45,2013-03-10 17:35:00,
2013-03-10 13:40:00,64.1,30.3,30.09,SSE,168,2.0,4.0,28,0.00,,,0.00,WeatherCatV1.12B45,2013-03-10 17:40:00,
2013-03-10 13:45:00,64.4,30.6,30.08,SE,144,2.0,4.0,28,0.00,,,0.00,WeatherCatV1.12B45,2013-03-10 17:45:00,
2013-03-10 13:50:00,64.9,30.1,30.08,SE,143,3.0,5.0,27,0.00,,,0.00,WeatherCatV1.12B45,2013-03-10 17:50:00,
2013-03-10 13:55:00,64.9,31.0,30.07,SSW,203,3.0,3.0,28,0.00,,,0.00,WeatherCatV1.12B45,2013-03-10 17:55:00,
2013-03-10 14:00:00,65.6,30.7,30.07,SW,214,1.0,5.0,27,0.00,,,0.00,WeatherCatV1.12B45,2013-03-10 18:00:00,
2013-03-10 14:05:00,65.5,30.6,30.07,South,169,1.0,6.0,27,0.00,,,0.00,WeatherCatV1.12B45,2013-03-10 18:05:00,
2013-03-10 14:10:00,66.1,30.2,30.06,South,184,1.0,4.0,26,0.00,,,0.00,WeatherCatV1.12B45,2013-03-10 18:10:00,
2013-03-10 14:15:00,66.4,32.3,30.06,SE,136,1.0,2.0,28,0.00,,,0.00,WeatherCatV1.12B45,2013-03-10 18:15:00,
2013-03-10 14:20:00,66.9,31.8,30.06,South,169,0.0,3.0,27,0.00,,,0.00,WeatherCatV1.12B45,2013-03-10 18:20:00,
2013-03-10 14:25:00,67.1,31.1,30.06,SSE,154,2.0,4.0,26,0.00,,,0.00,WeatherCatV1.12B45,2013-03-10 18:25:00,
2013-03-10 14:30:00,67.7,33.4,30.05,SSW,210,1.0,2.0,28,0.00,,,0.00,WeatherCatV1.12B45,2013-03-10 18:30:00,
2013-03-10 14:35:00,67.8,31.7,30.05,West,269,1.0,4.0,26,0.00,,,0.00,WeatherCatV1.12B45,2013-03-10 18:35:00,
2013-03-10 14:40:00,68.3,32.1,30.05,SE,129,2.0,5.0,26,0.00,,,0.00,WeatherCatV1.12B45,2013-03-10 18:40:00,
2013-03-10 14:45:00,68.3,32.1,30.04,SE,144,4.0,8.0,26,0.00,,,0.00,WeatherCatV1.12B45,2013-03-10 18:45:00,
2013-03-10 14:50:00,68.2,33.8,30.04,South,174,3.0,3.0,28,0.00,,,0.00,WeatherCatV1.12B45,2013-03-10 18:50:00,
2013-03-10 14:55:00,68.6,34.2,30.03,ESE,108,0.0,2.0,28,0.00,,,0.00,WeatherCatV1.12B45,2013-03-10 18:55:00,
2013-03-10 15:00:00,69.2,32.9,30.03,West,271,5.0,6.0,26,0.00,,,0.00,WeatherCatV1.12B45,2013-03-10 19:00:00,
2013-03-10 15:05:00,68.8,31.5,30.03,South,177,2.0,4.0,25,0.00,,,0.00,WeatherCatV1.12B45,2013-03-10 19:05:00,
2013-03-10 15:10:00,69.6,32.2,30.03,SSE,148,2.0,2.0,25,0.00,,,0.00,WeatherCatV1.12B45,2013-03-10 19:10:00,
2013-03-10 15:15:00,70.1,31.6,30.03,SSW,198,6.0,7.0,24,0.00,,,0.00,WeatherCatV1.12B45,2013-03-10 19:15:00,
2013-03-10 15:20:00,70.0,32.6,30.03,SE,127,1.0,5.0,25,0.00,,,0.00,WeatherCatV1.12B45,2013-03-10 19:20:00,
2013-03-10 15:25:00,69.5,31.1,30.02,SSE,158,2.0,5.0,24,0.00,,,0.00,WeatherCatV1.12B45,2013-03-10 19:25:00,
2013-03-10 15:30:00,69.5,33.1,30.02,SE,124,3.0,6.0,26,0.00,,,0.00,WeatherCatV1.12B45,2013-03-10 19:30:00,
2013-03-10 15:35:00,69.4,32.0,30.02,SSE,157,1.0,4.0,25,0.00,,,0.00,WeatherCatV1.12B45,2013-03-10 19:35:00,
2013-03-10 15:40:00,69.2,32.9,30.01,ESE,103,2.0,3.0,26,0.00,,,0.00,WeatherCatV1.12B45,2013-03-10 19:40:00,
2013-03-10 15:41:00,69.3,33.9,30.01,South,189,4.0,5.0,27,0.00,,,0.00,WeatherCatV1.12B45,2013-03-10 19:41:00,
2013-03-10 15:46:00,69.9,32.5,30.01,SSW,200,2.0,4.0,25,0.00,,,0.00,WeatherCatV1.12B45,2013-03-10 19:46:00,
2013-03-10 15:51:00,69.9,31.5,30.02,SW,236,1.0,3.0,24,0.00,,,0.00,WeatherCatV1.12B45,2013-03-10 19:51:00,
2013-03-10 15:56:00,69.4,31.0,30.02,SSW,210,0.0,5.0,24,0.00,,,0.00,WeatherCatV1.12B45,2013-03-10 19:56:00,
2013-03-10 16:01:00,69.1,31.8,30.02,SSE,154,2.0,2.0,25,0.00,,,0.00,WeatherCatV1.12B45,2013-03-10 20:01:00,
2013-03-10 16:06:00,68.6,30.4,30.02,South,169,3.0,3.0,24,0.00,,,0.00,WeatherCatV1.12B45,2013-03-10 20:06:00,
2013-03-10 16:11:00,68.1,30.9,30.01,SSE,150,2.0,4.0,25,0.00,,,0.00,WeatherCatV1.12B45,2013-03-10 20:11:00,
2013-03-10 16:16:00,67.9,30.8,30.01,SE,134,2.0,4.0,25,0.00,,,0.00,WeatherCatV1.12B45,2013-03-10 20:16:00,
2013-03-10 16:21:00,68.0,30.9,30.01,SSW,213,3.0,4.0,25,0.00,,,0.00,WeatherCatV1.12B45,2013-03-10 20:21:00,
2013-03-10 16:26:00,68.2,31.0,30.00,SE,132,2.0,2.0,25,0.00,,,0.00,WeatherCatV1.12B45,2013-03-10 20:26:00,
2013-03-10 16:31:00,68.4,30.2,30.00,SSW,193,4.0,5.0,24,0.00,,,0.00,WeatherCatV1.12B45,2013-03-10 20:31:00,
2013-03-10 16:36:00,68.4,30.2,30.00,SW,214,1.0,3.0,24,0.00,,,0.00,WeatherCatV1.12B45,2013-03-10 20:36:00,
2013-03-10 16:41:00,68.7,30.4,30.00,SSE,162,5.0,6.0,24,0.00,,,0.00,WeatherCatV1.12B45,2013-03-10 20:41:00,
2013-03-10 16:46:00,68.3,30.1,30.00,SSE,165,4.0,5.0,24,0.00,,,0.00,WeatherCatV1.12B45,2013-03-10 20:46:00,
2013-03-10 16:51:00,68.3,30.1,29.99,SSE,155,1.0,3.0,24,0.00,,,0.00,WeatherCatV1.12B45,2013-03-10 20:51:00,
2013-03-10 16:56:00,68.5,30.3,29.99,SE,134,2.0,3.0,24,0.00,,,0.00,WeatherCatV1.12B45,2013-03-10 20:56:00,
2013-03-10 17:01:00,68.6,29.3,29.99,SE,144,4.0,5.0,23,0.00,,,0.00,WeatherCatV1.12B45,2013-03-10 21:01:00,
2013-03-10 17:06:00,68.4,30.2,29.98,South,174,1.0,4.0,24,0.00,,,0.00,WeatherCatV1.12B45,2013-03-10 21:06:00,
2013-03-10 17:11:00,68.3,29.1,29.98,South,181,3.0,6.0,23,0.00,,,0.00,WeatherCatV1.12B45,2013-03-10 21:11:00,
2013-03-10 17:16:00,68.1,29.9,29.98,South,181,1.0,3.0,24,0.00,,,0.00,WeatherCatV1.12B45,2013-03-10 21:16:00,
2013-03-10 17:21:00,67.8,30.7,29.97,SE,124,2.0,3.0,25,0.00,,,0.00,WeatherCatV1.12B45,2013-03-10 21:21:00,
2013-03-10 17:26:00,67.5,30.4,29.97,SSW,194,4.0,4.0,25,0.00,,,0.00,WeatherCatV1.12B45,2013-03-10 21:26:00,
2013-03-10 17:31:00,67.3,30.3,29.97,SE,146,4.0,4.0,25,0.00,,,0.00,WeatherCatV1.12B45,2013-03-10 21:31:00,
2013-03-10 17:36:00,67.1,31.1,29.97,ESE,117,0.0,5.0,26,0.00,,,0.00,WeatherCatV1.12B45,2013-03-10 21:36:00,
2013-03-10 17:41:00,67.0,31.0,29.97,SE,140,0.0,3.0,26,0.00,,,0.00,WeatherCatV1.12B45,2013-03-10 21:41:00,
2013-03-10 17:46:00,66.8,30.8,29.98,SE,134,2.0,6.0,26,0.00,,,0.00,WeatherCatV1.12B45,2013-03-10 21:46:00,
2013-03-10 17:51:00,66.5,30.6,29.98,SE,125,1.0,3.0,26,0.00,,,0.00,WeatherCatV1.12B45,2013-03-10 21:51:00,
2013-03-10 17:56:00,66.2,30.3,29.98,SE,137,1.0,4.0,26,0.00,,,0.00,WeatherCatV1.12B45,2013-03-10 21:56:00,
2013-03-10 18:01:00,65.8,30.9,29.98,SSW,193,3.0,3.0,27,0.00,,,0.00,WeatherCatV1.12B45,2013-03-10 22:01:00,
2013-03-10 18:06:00,65.8,30.9,29.98,ESE,108,1.0,3.0,27,0.00,,,0.00,WeatherCatV1.12B45,2013-03-10 22:06:00,
2013-03-10 18:11:00,65.8,30.9,29.99,SE,137,2.0,3.0,27,0.00,,,0.00,WeatherCatV1.12B45,2013-03-10 22:11:00,
2013-03-10 18:16:00,65.5,30.6,29.99,ESE,105,1.0,2.0,27,0.00,,,0.00,WeatherCatV1.12B45,2013-03-10 22:16:00,
2013-03-10 18:21:00,65.0,32.0,29.99,SE,136,1.0,2.0,29,0.00,,,0.00,WeatherCatV1.12B45,2013-03-10 22:21:00,
2013-03-10 18:26:00,64.8,30.9,30.00,SSE,148,1.0,3.0,28,0.00,,,0.00,WeatherCatV1.12B45,2013-03-10 22:26:00,
2013-03-10 18:31:00,64.8,31.8,30.00,SE,137,0.0,1.0,29,0.00,,,0.00,WeatherCatV1.12B45,2013-03-10 22:31:00,
2013-03-10 18:36:00,64.4,30.6,30.00,SSE,153,1.0,2.0,28,0.00,,,0.00,WeatherCatV1.12B45,2013-03-10 22:36:00,
2013-03-10 18:41:00,64.2,31.3,30.00,SSE,153,1.0,1.0,29,0.00,,,0.00,WeatherCatV1.12B45,2013-03-10 22:41:00,
2013-03-10 18:46:00,63.8,30.9,30.00,SE,134,1.0,2.0,29,0.00,,,0.00,WeatherCatV1.12B45,2013-03-10 22:46:00,
2013-03-10 18:51:00,63.7,31.7,30.00,ESE,119,1.0,4.0,30,0.00,,,0.00,WeatherCatV1.12B45,2013-03-10 22:51:00,
2013-03-10 18:56:00,63.4,30.6,30.00,SSE,148,1.0,2.0,29,0.00,,,0.00,WeatherCatV1.12B45,2013-03-10 22:56:00,
2013-03-10 19:01:00,63.2,31.3,29.99,ESE,105,0.0,2.0,30,0.00,,,0.00,WeatherCatV1.12B45,2013-03-10 23:01:00,
2013-03-10 19:06:00,62.8,31.7,29.99,East,87,1.0,3.0,31,0.00,,,0.00,WeatherCatV1.12B45,2013-03-10 23:06:00,
2013-03-10 19:11:00,62.5,29.8,29.99,ESE,108,1.0,3.0,29,0.00,,,0.00,WeatherCatV1.12B45,2013-03-10 23:11:00,
2013-03-10 19:16:00,62.2,31.2,29.98,ESE,112,1.0,1.0,31,0.00,,,0.00,WeatherCatV1.12B45,2013-03-10 23:16:00,
2013-03-10 19:21:00,62.0,31.8,29.99,ESE,119,0.0,1.0,32,0.00,,,0.00,WeatherCatV1.12B45,2013-03-10 23:21:00,
2013-03-10 19:26:00,61.7,31.5,29.99,SE,137,1.0,2.0,32,0.00,,,0.00,WeatherCatV1.12B45,2013-03-10 23:26:00,
2013-03-10 19:31:00,61.5,30.6,29.99,NNW,336,0.0,2.0,31,0.00,,,0.00,WeatherCatV1.12B45,2013-03-10 23:31:00,
2013-03-10 19:36:00,61.1,31.0,30.00,ESE,122,0.0,0.0,32,0.00,,,0.00,WeatherCatV1.12B45,2013-03-10 23:36:00,
2013-03-10 19:41:00,60.8,30.8,30.00,ESE,114,0.0,2.0,32,0.00,,,0.00,WeatherCatV1.12B45,2013-03-10 23:41:00,
2013-03-10 19:46:00,60.6,30.6,30.00,SE,127,1.0,1.0,32,0.00,,,0.00,WeatherCatV1.12B45,2013-03-10 23:46:00,
2013-03-10 19:51:00,60.3,31.8,30.00,ESE,113,0.0,2.0,34,0.00,,,0.00,WeatherCatV1.12B45,2013-03-10 23:51:00,
2013-03-10 19:56:00,60.1,31.6,30.00,ESE,108,1.0,2.0,34,0.00,,,0.00,WeatherCatV1.12B45,2013-03-10 23:56:00,
2013-03-10 20:01:00,60.0,31.6,30.00,ESE,109,1.0,1.0,34,0.00,,,0.00,WeatherCatV1.12B45,2013-03-11 00:01:00,
2013-03-10 20:06:00,59.7,30.6,30.00,SE,145,0.0,1.0,33,0.00,,,0.00,WeatherCatV1.12B45,2013-03-11 00:06:00,
2013-03-10 20:11:00,59.5,30.4,30.00,SE,127,1.0,1.0,33,0.00,,,0.00,WeatherCatV1.12B45,2013-03-11 00:11:00,
2013-03-10 20:16:00,59.3,30.9,30.00,NE,56,0.0,1.0,34,0.00,,,0.00,WeatherCatV1.12B45,2013-03-11 00:16:00,
2013-03-10 20:21:00,59.2,31.6,30.00,ENE,76,0.0,0.0,35,0.00,,,0.00,WeatherCatV1.12B45,2013-03-11 00:21:00,
2013-03-10 20:26:00,59.1,31.5,30.00,ESE,119,0.0,1.0,35,0.00,,,0.00,WeatherCatV1.12B45,2013-03-11 00:26:00,
2013-03-10 20:31:00,58.9,31.3,30.00,SE,142,0.0,1.0,35,0.00,,,0.00,WeatherCatV1.12B45,2013-03-11 00:31:00,
2013-03-10 20:36:00,58.6,32.4,30.00,ESE,113,1.0,1.0,37,0.00,,,0.00,WeatherCatV1.12B45,2013-03-11 00:36:00,
2013-03-10 20:41:00,58.3,30.8,30.00,ESE,120,0.0,2.0,35,0.00,,,0.00,WeatherCatV1.12B45,2013-03-11 00:41:00,
2013-03-10 20:46:00,58.2,30.7,30.00,East,101,0.0,1.0,35,0.00,,,0.00,WeatherCatV1.12B45,2013-03-11 00:46:00,
2013-03-10 20:51:00,58.2,30.7,30.00,SE,136,0.0,1.0,35,0.00,,,0.00,WeatherCatV1.12B45,2013-03-11 00:51:00,
2013-03-10 20:56:00,58.0,31.9,30.00,East,99,0.0,2.0,37,0.00,,,0.00,WeatherCatV1.12B45,2013-03-11 00:56:00,
2013-03-10 21:01:00,57.8,31.0,30.00,East,100,0.0,2.0,36,0.00,,,0.00,WeatherCatV1.12B45,2013-03-11 01:01:00,
2013-03-10 21:06:00,57.8,31.0,29.99,East,100,0.0,1.0,36,0.00,,,0.00,WeatherCatV1.12B45,2013-03-11 01:06:00,
2013-03-10 21:11:00,57.5,31.4,29.99,East,100,0.0,1.0,37,0.00,,,0.00,WeatherCatV1.12B45,2013-03-11 01:11:00,
2013-03-10 21:16:00,57.2,31.2,30.00,NE,42,1.0,1.0,37,0.00,,,0.00,WeatherCatV1.12B45,2013-03-11 01:16:00,
2013-03-10 21:21:00,57.1,31.1,30.00,East,96,0.0,1.0,37,0.00,,,0.00,WeatherCatV1.12B45,2013-03-11 01:21:00,
2013-03-10 21:26:00,56.9,31.6,30.00,SE,127,0.0,1.0,38,0.00,,,0.00,WeatherCatV1.12B45,2013-03-11 01:26:00,
2013-03-10 21:31:00,56.6,30.6,29.99,ESE,113,0.0,1.0,37,0.00,,,0.00,WeatherCatV1.12B45,2013-03-11 01:31:00,
2013-03-10 21:36:00,56.4,31.1,29.99,ESE,113,0.0,1.0,38,0.00,,,0.00,WeatherCatV1.12B45,2013-03-11 01:36:00,
2013-03-10 21:41:00,56.1,30.8,29.99,East,98,1.0,1.0,38,0.00,,,0.00,WeatherCatV1.12B45,2013-03-11 01:41:00,
2013-03-10 21:46:00,56.0,31.4,29.98,ESE,122,0.0,1.0,39,0.00,,,0.00,WeatherCatV1.12B45,2013-03-11 01:46:00,
2013-03-10 21:51:00,55.9,30.7,29.99,East,96,0.0,2.0,38,0.00,,,0.00,WeatherCatV1.12B45,2013-03-11 01:51:00,
2013-03-10 21:56:00,55.8,30.6,29.98,SE,139,1.0,1.0,38,0.00,,,0.00,WeatherCatV1.12B45,2013-03-11 01:56:00,
2013-03-10 22:01:00,55.8,31.2,29.99,ESE,116,0.0,1.0,39,0.00,,,0.00,WeatherCatV1.12B45,2013-03-11 02:01:00,
2013-03-10 22:06:00,56.0,30.8,29.99,SSE,157,0.0,1.0,38,0.00,,,0.00,WeatherCatV1.12B45,2013-03-11 02:06:00,
2013-03-10 22:11:00,56.1,31.5,29.99,SE,131,1.0,1.0,39,0.00,,,0.00,WeatherCatV1.12B45,2013-03-11 02:11:00,
2013-03-10 22:16:00,56.1,31.5,29.98,SE,136,1.0,3.0,39,0.00,,,0.00,WeatherCatV1.12B45,2013-03-11 02:16:00,
2013-03-10 22:21:00,56.2,30.9,29.97,SE,127,2.0,2.0,38,0.00,,,0.00,WeatherCatV1.12B45,2013-03-11 02:21:00,
2013-03-10 22:26:00,56.2,30.9,29.97,SE,137,2.0,3.0,38,0.00,,,0.00,WeatherCatV1.12B45,2013-03-11 02:26:00,
2013-03-10 22:31:00,56.2,31.6,29.97,ESE,107,0.0,2.0,39,0.00,,,0.00,WeatherCatV1.12B45,2013-03-11 02:31:00,
2013-03-10 22:36:00,56.2,30.9,29.97,ESE,113,1.0,1.0,38,0.00,,,0.00,WeatherCatV1.12B45,2013-03-11 02:36:00,
2013-03-10 22:41:00,56.3,31.0,29.97,SSE,153,1.0,1.0,38,0.00,,,0.00,WeatherCatV1.12B45,2013-03-11 02:41:00,
2013-03-10 22:46:00,56.2,30.9,29.97,SE,141,2.0,2.0,38,0.00,,,0.00,WeatherCatV1.12B45,2013-03-11 02:46:00,
2013-03-10 22:51:00,56.2,30.9,29.97,SE,141,1.0,1.0,38,0.00,,,0.00,WeatherCatV1.12B45,2013-03-11 02:51:00,
2013-03-10 22:56:00,56.3,30.4,29.97,SSE,161,0.0,2.0,37,0.00,,,0.00,WeatherCatV1.12B45,2013-03-11 02:56:00,
2013-03-10 23:01:00,56.3,30.4,29.98,WNW,286,1.0,2.0,37,0.00,,,0.00,WeatherCatV1.12B45,2013-03-11 03:01:00,
2013-03-10 23:06:00,56.2,30.9,29.98,WNW,283,0.0,0.0,38,0.00,,,0.00,WeatherCatV1.12B45,2013-03-11 03:06:00,
2013-03-10 23:11:00,55.9,30.0,29.98,SE,139,1.0,2.0,37,0.00,,,0.00,WeatherCatV1.12B45,2013-03-11 03:11:00,
2013-03-10 23:16:00,56.1,30.2,29.98,SW,231,0.0,2.0,37,0.00,,,0.00,WeatherCatV1.12B45,2013-03-11 03:16:00,
2013-03-10 23:21:00,55.9,31.9,29.98,ESE,117,0.0,1.0,40,0.00,,,0.00,WeatherCatV1.12B45,2013-03-11 03:21:00,
2013-03-10 23:26:00,55.3,30.8,29.99,ESE,118,1.0,1.0,39,0.00,,,0.00,WeatherCatV1.12B45,2013-03-11 03:26:00,
2013-03-10 23:31:00,55.6,30.4,29.99,SE,141,0.0,1.0,38,0.00,,,0.00,WeatherCatV1.12B45,2013-03-11 03:31:00,
2013-03-10 23:36:00,55.6,30.4,29.99,SE,141,0.0,1.0,38,0.00,,,0.00,WeatherCatV1.12B45,2013-03-11 03:36:00,
2013-03-10 23:41:00,55.7,30.5,29.98,SE,127,1.0,1.0,38,0.00,,,0.00,WeatherCatV1.12B45,2013-03-11 03:41:00,
2013-03-10 23:46:00,55.6,30.4,29.97,SE,134,0.0,2.0,38,0.00,,,0.00,WeatherCatV1.12B45,2013-03-11 03:46:00,
2013-03-10 23:51:00,55.7,29.8,29.98,SSE,152,2.0,2.0,37,0.00,,,0.00,WeatherCatV1.12B45,2013-03-11 03:51:00,
2013-03-10 23:56:00,55.8,29.9,29.98,SE,146,0.0,1.0,37,0.00,,,0.00,WeatherCatV1.12B45,2013-03-11 03:56:00,